STARLINK-2035 (47651 NORAD) Tracking and Keplerian Element Data

This shows tracking and keplerian element data for the satellite.

Feedback or suggestion? Click here.




ElementValue
Catalog47651
NameSTARLINK-2035
Epoch Orbit175
Epoch Day101.91668981
Epoch Year2021
RAAN199.6775
Inclination53.0537
Eccentricity0.0001334
Argument of Perigee77.0559
Mean Anonmoly26.1571
Mean Motion15.06408889
Decay Rate-0.00033889
L11 47651U 21012AH 21101.91668981 -.00033889 00000-0 -22665-2 0 9998
L22 47651 53.0537 199.6775 0001334 77.0559 26.1571 15.06408889 1750

Live tracking and technical data element details for STARLINK-2035 (NORAD 47651). STARLINK-2035 can be tracked NOW for your location showing map with azimuth and elevation plus other details from your city location.

Track the satellite on the map from your city or location and see movement details for azimuth, elevation, latitude, longitude, range, height, and movement on the map or in text.







IsCatalogInMostPopularTable: catalog: 47651, numindb: 20
Update: records affected: 1



GetName: 47651 STARLINK-2035

Hit Count: updated at: Tue, 13 Apr 2021 05:10:29 GMT